This is the latest recevied weather packets stored in our database for station/object WA4IKQ. If no packets are shown the sender has not sent any weather packets the latest 10 day(s).
| Time | Temp. | Humidity | Pressure | Rain* | Wind** | Luminosity | Snow |
|---|---|---|---|---|---|---|---|
| 1777075786 | 25.56° C | 55% | 1011.5 hPa | 0 mm | 1.79 m/s, 125° | - | - |
| 1777075743 | 25.56° C | 54% | 1011.4 hPa | 0 mm | 2.24 m/s, 117° | - | - |
| 1777075483 | 25.56° C | 54% | 1011.4 hPa | 0 mm | 2.24 m/s, 117° | - | - |
| 1777075408 | 25.56° C | 54% | 1011.4 hPa | 0 mm | 0.89 m/s, 24° | - | - |
| 1777075183 | 25.56° C | 54% | 1011.4 hPa | 0 mm | 0.89 m/s, 24° | - | - |
| 1777074674 | 26.11° C | 53% | 1011.3 hPa | 0 mm | 0 m/s | - | - |
| 1777074584 | 26.11° C | 53% | 1011.3 hPa | 0 mm | 0 m/s | - | - |
| 1777074481 | 26.11° C | 52% | 1011.3 hPa | 0 mm | 0.89 m/s, 44° | - | - |
| 1777074284 | 26.11° C | 52% | 1011.3 hPa | 0 mm | 0.89 m/s, 44° | - | - |
| 1777073895 | 26.11° C | 52% | 1011.2 hPa | 0 mm | 0.45 m/s, 37° | - | - |
| 1777073685 | 26.11° C | 52% | 1011.2 hPa | 0 mm | 0.45 m/s, 37° | - | - |
| 1777073248 | 26.67° C | 51% | 1011.1 hPa | 0 mm | 1.34 m/s, 110° | - | - |
| 1777073083 | 26.67° C | 51% | 1011.1 hPa | 0 mm | 1.34 m/s, 110° | - | - |
| 1777072926 | 26.67° C | 51% | 1011.1 hPa | 0 mm | 1.79 m/s, 359° | - | - |
| 1777072783 | 26.67° C | 51% | 1011.1 hPa | 0 mm | 1.79 m/s, 359° | - | - |
| 1777072745 | 26.67° C | 51% | 1011.1 hPa | 0 mm | 3.58 m/s, 70° | - | - |
| 1777072483 | 26.67° C | 51% | 1011.1 hPa | 0 mm | 3.58 m/s, 70° | - | - |
| 1777072326 | 26.67° C | 51% | 1011 hPa | 0 mm | 0.89 m/s, 80° | - | - |
| 1777072184 | 26.67° C | 51% | 1011 hPa | 0 mm | 0.89 m/s, 80° | - | - |
| 1777072094 | 26.67° C | 51% | 1011 hPa | 0 mm | 2.24 m/s, 72° | - | - |
| 1777071884 | 26.67° C | 51% | 1011 hPa | 0 mm | 2.24 m/s, 72° | - | - |
| 1777071823 | 26.67° C | 50% | 1011 hPa | 0 mm | 3.13 m/s, 120° | - | - |
| 1777071585 | 26.67° C | 50% | 1011 hPa | 0 mm | 3.13 m/s, 120° | - | - |
| 1777071127 | 27.22° C | 50% | 1011 hPa | 0 mm | 1.79 m/s, 120° | - | - |
| 1777070982 | 27.22° C | 50% | 1011 hPa | 0 mm | 1.79 m/s, 120° | - | - |
* Rain latest hour (hover to see other rain measurements)
** Current wind speed in m/s (hover to see current wind gust speed)